EZS9470 LPMA-LSGG

Flight info

Callsign EZS9470
Flight time 3h 8m
Altitude 34000
Route DEGUN DCT TOSDI/N0449F360 DCT ZMR DCT NEA DCT DGO DCT LPA DCT GOSVI DCT TOPTU DCT TOU DCT GAI DCT MEN DCT NINUN/N0453F300 DCT LATAM DCT ETREK DCT LUXAN G53 LTP Z16 BELUS
Aircraft A320/M-SDE3FGHIRWY/LB1

Departure

Time 2026-05-06 16:09
Airport Cristiano Ronaldo International Airport (LPMA)

Arrival

Time 2026-05-06 19:17
Airport Geneva International Airport (LSGG)
Time Latitude Longitude Altitude Speed Heading
2026-05-06 15:26 32.69356 -16.77659 170 ft 0 kts 139°
2026-05-06 15:58 32.69364 -16.77667 169 ft 4 kts 139°
2026-05-06 15:58 32.69382 -16.77686 169 ft 2 kts 139°
2026-05-06 15:58 32.69401 -16.77701 169 ft 4 kts 176°
2026-05-06 15:59 32.69422 -16.77692 169 ft 3 kts 226°
2026-05-06 15:59 32.69434 -16.77677 169 ft 0 kts 226°
2026-05-06 16:05 32.69421 -16.77693 169 ft 7 kts 226°
2026-05-06 16:05 32.69386 -16.77736 169 ft 9 kts 226°
2026-05-06 16:06 32.69330 -16.77806 169 ft 14 kts 226°
2026-05-06 16:06 32.69288 -16.77916 169 ft 17 kts 268°
2026-05-06 16:06 32.69265 -16.78058 168 ft 21 kts 227°
2026-05-06 16:06 32.69147 -16.78195 162 ft 27 kts 224°
2026-05-06 16:07 32.69004 -16.78362 154 ft 15 kts 223°
2026-05-06 16:07 32.68899 -16.78426 153 ft 16 kts 233°
2026-05-06 16:07 32.68909 -16.78468 153 ft 3 kts 15°
2026-05-06 16:07 32.68939 -16.78442 153 ft 7 kts 44°
2026-05-06 16:08 32.68988 -16.78384 153 ft 15 kts 44°
2026-05-06 16:08 32.69246 -16.78084 167 ft 89 kts 44°
2026-05-06 16:08 32.69848 -16.77386 196 ft 148 kts 44°
2026-05-06 16:08 32.70686 -16.76455 496 ft 172 kts 41°
2026-05-06 16:09 32.71393 -16.75282 1236 ft 180 kts 69°
2026-05-06 16:09 32.71425 -16.73778 1910 ft 192 kts 104°
2026-05-06 16:09 32.70916 -16.72240 2290 ft 208 kts 110°
2026-05-06 16:09 32.70333 -16.70576 2599 ft 228 kts 110°
2026-05-06 16:10 32.69694 -16.68743 2889 ft 252 kts 109°
2026-05-06 16:10 32.69009 -16.66766 3475 ft 264 kts 109°
2026-05-06 16:10 32.68302 -16.64722 4200 ft 271 kts 109°
2026-05-06 16:10 32.67591 -16.62660 4953 ft 277 kts 109°
2026-05-06 16:11 32.66856 -16.60523 5696 ft 282 kts 110°
2026-05-06 16:11 32.66141 -16.58328 6416 ft 288 kts 104°
2026-05-06 16:11 32.65911 -16.55969 7117 ft 290 kts 84°
2026-05-06 16:11 32.66362 -16.53659 7871 ft 287 kts 63°
2026-05-06 16:12 32.67422 -16.51679 8630 ft 284 kts 43°
2026-05-06 16:12 32.68833 -16.50055 9423 ft 283 kts 40°
2026-05-06 16:12 32.70267 -16.48431 10186 ft 285 kts 40°
2026-05-06 16:12 32.71746 -16.46754 10471 ft 305 kts 41°
2026-05-06 16:13 32.73340 -16.44948 10600 ft 328 kts 41°
2026-05-06 16:13 32.75043 -16.43013 10725 ft 349 kts 41°
2026-05-06 16:13 32.76823 -16.40981 11142 ft 359 kts 41°
2026-05-06 16:13 32.78636 -16.38908 11705 ft 364 kts 41°
2026-05-06 16:14 32.80471 -16.36805 12291 ft 368 kts 41°
2026-05-06 16:14 32.82322 -16.34681 12891 ft 372 kts 41°
2026-05-06 16:14 32.84195 -16.32529 13462 ft 377 kts 41°
2026-05-06 16:14 32.86092 -16.30351 14010 ft 381 kts 41°
2026-05-06 16:15 32.88009 -16.28149 14527 ft 385 kts 41°
2026-05-06 16:15 32.89940 -16.25930 15052 ft 387 kts 41°
2026-05-06 16:15 32.91886 -16.23694 15566 ft 390 kts 41°
2026-05-06 16:15 32.93847 -16.21441 16087 ft 393 kts 41°
2026-05-06 16:16 32.95823 -16.19175 16587 ft 396 kts 41°
2026-05-06 16:16 32.97812 -16.16890 17076 ft 399 kts 41°
2026-05-06 16:16 32.99811 -16.14587 17563 ft 401 kts 41°
2026-05-06 16:16 33.01826 -16.12268 18046 ft 404 kts 40°
2026-05-06 16:17 33.03828 -16.09966 18505 ft 407 kts 40°
2026-05-06 16:17 33.05896 -16.07587 18933 ft 409 kts 40°
2026-05-06 16:17 33.07920 -16.05255 19348 ft 411 kts 40°
2026-05-06 16:17 33.09977 -16.02882 19792 ft 412 kts 40°
2026-05-06 16:18 33.12041 -16.00496 20225 ft 414 kts 40°
2026-05-06 16:18 33.14109 -15.98101 20632 ft 416 kts 40°
2026-05-06 16:18 33.16198 -15.95686 20970 ft 420 kts 40°
2026-05-06 16:18 33.18304 -15.93252 21363 ft 422 kts 40°
2026-05-06 16:19 33.20417 -15.90807 21775 ft 424 kts 40°
2026-05-06 16:19 33.22535 -15.88350 22180 ft 425 kts 40°
2026-05-06 16:19 33.24660 -15.85879 22570 ft 427 kts 40°
2026-05-06 16:19 33.26791 -15.83398 22950 ft 429 kts 40°
2026-05-06 16:20 33.28938 -15.80896 23309 ft 431 kts 39°
2026-05-06 16:20 33.31088 -15.78390 23661 ft 433 kts 39°
2026-05-06 16:20 33.33250 -15.75874 23967 ft 435 kts 39°
2026-05-06 16:20 33.35418 -15.73352 24279 ft 436 kts 39°
2026-05-06 16:21 33.37598 -15.70818 24598 ft 437 kts 39°
2026-05-06 16:21 33.39781 -15.68279 24920 ft 438 kts 39°
2026-05-06 16:21 33.41966 -15.65735 25236 ft 438 kts 39°
2026-05-06 16:21 33.44189 -15.63226 25549 ft 439 kts 38°
2026-05-06 16:22 33.46461 -15.60764 25755 ft 442 kts 37°
2026-05-06 16:22 33.48770 -15.58321 26019 ft 444 kts 36°
2026-05-06 16:22 33.51094 -15.55875 26303 ft 445 kts 36°
2026-05-06 16:22 33.53423 -15.53414 26582 ft 446 kts 36°
2026-05-06 16:23 33.55747 -15.50940 26859 ft 447 kts 36°
2026-05-06 16:23 33.58067 -15.48449 27129 ft 448 kts 37°
2026-05-06 16:23 33.60384 -15.45945 27388 ft 449 kts 37°
2026-05-06 16:23 33.62703 -15.43430 27662 ft 450 kts 37°
2026-05-06 16:24 33.65028 -15.40908 27924 ft 451 kts 37°
2026-05-06 16:24 33.67330 -15.38417 28178 ft 452 kts 36°
2026-05-06 16:24 33.69664 -15.35898 28522 ft 450 kts 36°
2026-05-06 16:24 33.71984 -15.33388 28902 ft 448 kts 36°
2026-05-06 16:25 33.74293 -15.30886 29285 ft 446 kts 36°
2026-05-06 16:25 33.76591 -15.28392 29661 ft 444 kts 36°
2026-05-06 16:25 33.78877 -15.25911 30080 ft 442 kts 36°
2026-05-06 16:25 33.81150 -15.23443 30456 ft 439 kts 36°
2026-05-06 16:26 33.83412 -15.20988 30754 ft 437 kts 36°
2026-05-06 16:26 33.85672 -15.18537 31014 ft 437 kts 36°
2026-05-06 16:26 33.87932 -15.16081 31259 ft 437 kts 36°
2026-05-06 16:26 33.90187 -15.13622 31508 ft 437 kts 36°
2026-05-06 16:27 33.92445 -15.11159 31753 ft 437 kts 36°
2026-05-06 16:27 33.94705 -15.08694 31995 ft 438 kts 36°
2026-05-06 16:27 33.96960 -15.06238 32252 ft 438 kts 36°
2026-05-06 16:27 33.99220 -15.03780 32483 ft 437 kts 36°
2026-05-06 16:28 34.01476 -15.01320 32729 ft 438 kts 36°
2026-05-06 16:28 34.03732 -14.98848 32966 ft 438 kts 37°
2026-05-06 16:28 34.05982 -14.96378 33203 ft 438 kts 37°
2026-05-06 16:28 34.08211 -14.93926 33474 ft 438 kts 37°
2026-05-06 16:29 34.10465 -14.91446 33693 ft 439 kts 37°
2026-05-06 16:29 34.12728 -14.88963 33871 ft 440 kts 37°
2026-05-06 16:29 34.14994 -14.86480 34083 ft 441 kts 37°
2026-05-06 16:29 34.17266 -14.83987 34284 ft 441 kts 37°
2026-05-06 16:30 34.19535 -14.81496 34495 ft 440 kts 37°
2026-05-06 16:30 34.21036 -14.79848 34642 ft 440 kts 37°
2026-05-06 16:30 34.24057 -14.76524 34934 ft 439 kts 37°
2026-05-06 16:30 34.26316 -14.74036 35147 ft 438 kts 37°
2026-05-06 16:31 34.28573 -14.71550 35353 ft 438 kts 36°
2026-05-06 16:31 34.30822 -14.69071 35553 ft 437 kts 36°
2026-05-06 16:31 34.33064 -14.66594 35752 ft 436 kts 36°
2026-05-06 16:31 34.35299 -14.64121 35943 ft 436 kts 36°
2026-05-06 16:32 34.37537 -14.61645 36077 ft 436 kts 36°
2026-05-06 16:32 34.39774 -14.59165 36090 ft 436 kts 36°
2026-05-06 16:32 34.44250 -14.54193 36088 ft 437 kts 37°
2026-05-06 16:33 34.48716 -14.49242 36082 ft 438 kts 37°
2026-05-06 16:34 34.55466 -14.41731 36082 ft 439 kts 37°
2026-05-06 16:34 34.59970 -14.36728 36083 ft 439 kts 37°
2026-05-06 16:35 34.64467 -14.31709 36083 ft 439 kts 37°
2026-05-06 16:35 34.68955 -14.26680 36101 ft 439 kts 36°
2026-05-06 16:36 34.73447 -14.21656 36096 ft 438 kts 36°
2026-05-06 16:36 34.77933 -14.16632 36083 ft 439 kts 37°
2026-05-06 16:37 34.82433 -14.11582 36079 ft 440 kts 37°
2026-05-06 16:37 34.86932 -14.06509 36060 ft 441 kts 37°
2026-05-06 16:38 34.91438 -14.01435 36070 ft 441 kts 37°
2026-05-06 16:38 34.95952 -13.96363 36092 ft 441 kts 37°
2026-05-06 16:39 35.00457 -13.91276 36083 ft 441 kts 37°
2026-05-06 16:39 35.04924 -13.86211 36084 ft 441 kts 37°
2026-05-06 16:40 35.09420 -13.81107 36076 ft 442 kts 37°
2026-05-06 16:40 35.13932 -13.75983 36060 ft 444 kts 37°
2026-05-06 16:41 35.18458 -13.70837 36057 ft 445 kts 37°
2026-05-06 16:41 35.22984 -13.65676 36059 ft 445 kts 37°
2026-05-06 16:42 35.26759 -13.61373 36060 ft 446 kts 37°
2026-05-06 16:42 35.31302 -13.56203 36063 ft 446 kts 37°
2026-05-06 16:43 35.35839 -13.51009 36069 ft 446 kts 38°
2026-05-06 16:43 35.40381 -13.45794 36068 ft 448 kts 38°
2026-05-06 16:44 35.44937 -13.40569 36053 ft 449 kts 38°
2026-05-06 16:44 35.49504 -13.35320 36052 ft 450 kts 38°
2026-05-06 16:45 35.54077 -13.30057 36073 ft 451 kts 38°
2026-05-06 16:45 35.58644 -13.24788 36076 ft 450 kts 38°
2026-05-06 16:46 35.63205 -13.19517 36075 ft 450 kts 38°
2026-05-06 16:46 35.67763 -13.14237 36074 ft 450 kts 38°
2026-05-06 16:47 35.72332 -13.08947 36072 ft 451 kts 38°
2026-05-06 16:47 35.76901 -13.03644 36055 ft 452 kts 38°
2026-05-06 16:48 35.81476 -12.98318 36071 ft 453 kts 38°
2026-05-06 16:48 35.86056 -12.92987 36069 ft 453 kts 38°
2026-05-06 16:49 35.90637 -12.87647 36070 ft 453 kts 38°
2026-05-06 16:49 35.95192 -12.82329 36070 ft 453 kts 38°
2026-05-06 16:50 35.99771 -12.76963 36079 ft 453 kts 38°
2026-05-06 16:50 36.04348 -12.71589 36063 ft 455 kts 39°
2026-05-06 16:51 36.08937 -12.66192 36080 ft 456 kts 39°
2026-05-06 16:51 36.13531 -12.60784 36065 ft 456 kts 39°
2026-05-06 16:52 36.18135 -12.55378 36063 ft 456 kts 39°
2026-05-06 16:52 36.22731 -12.49956 36058 ft 457 kts 39°
2026-05-06 16:53 36.27329 -12.44505 36066 ft 457 kts 39°
2026-05-06 16:53 36.31886 -12.39095 36066 ft 457 kts 39°
2026-05-06 16:54 36.36491 -12.33637 36071 ft 458 kts 39°
2026-05-06 16:54 36.41100 -12.28158 36052 ft 459 kts 39°
2026-05-06 16:55 36.45715 -12.22660 36050 ft 460 kts 39°
2026-05-06 16:55 36.50333 -12.17149 36050 ft 460 kts 39°
2026-05-06 16:56 36.54952 -12.11631 36053 ft 460 kts 39°
2026-05-06 16:56 36.59566 -12.06102 36053 ft 460 kts 39°
2026-05-06 16:57 36.64182 -12.00572 36063 ft 461 kts 40°
2026-05-06 16:57 36.68810 -11.95013 36044 ft 462 kts 40°
2026-05-06 16:58 36.73440 -11.89444 36039 ft 463 kts 40°
2026-05-06 16:58 36.78076 -11.83860 36038 ft 463 kts 40°
2026-05-06 16:59 36.82714 -11.78263 36040 ft 464 kts 40°
2026-05-06 16:59 36.87339 -11.72645 36037 ft 464 kts 40°
2026-05-06 17:00 36.91937 -11.67063 36052 ft 464 kts 40°
2026-05-06 17:00 36.96576 -11.61438 36050 ft 464 kts 40°
2026-05-06 17:01 37.01207 -11.55817 36046 ft 464 kts 40°
2026-05-06 17:01 37.05838 -11.50176 36044 ft 464 kts 40°
2026-05-06 17:02 37.10460 -11.44530 36042 ft 464 kts 40°
2026-05-06 17:02 37.15084 -11.38879 36041 ft 464 kts 40°
2026-05-06 17:03 37.19713 -11.33220 36060 ft 464 kts 40°
2026-05-06 17:03 37.24333 -11.27547 36034 ft 465 kts 40°
2026-05-06 17:04 37.28966 -11.21844 36025 ft 466 kts 40°
2026-05-06 17:04 37.33577 -11.16160 36019 ft 467 kts 40°
2026-05-06 17:05 37.38223 -11.10420 36020 ft 468 kts 40°
2026-05-06 17:05 37.42866 -11.04688 36023 ft 468 kts 40°
2026-05-06 17:06 37.47521 -10.98929 36039 ft 469 kts 41°
2026-05-06 17:06 37.52166 -10.93151 36047 ft 469 kts 41°
2026-05-06 17:07 37.56815 -10.87368 36029 ft 470 kts 41°
2026-05-06 17:07 37.61473 -10.81574 36020 ft 471 kts 41°
2026-05-06 17:08 37.66130 -10.75756 36016 ft 471 kts 41°
2026-05-06 17:08 37.70784 -10.69937 36028 ft 471 kts 41°
2026-05-06 17:09 37.75447 -10.64106 36020 ft 471 kts 41°
2026-05-06 17:09 37.80078 -10.58296 36016 ft 472 kts 41°
2026-05-06 17:10 37.84735 -10.52432 36010 ft 473 kts 42°
2026-05-06 17:10 37.89396 -10.46558 36005 ft 473 kts 41°
2026-05-06 17:11 37.94075 -10.40665 35999 ft 474 kts 42°
2026-05-06 17:11 37.98741 -10.34758 36003 ft 474 kts 42°
2026-05-06 17:12 38.03414 -10.28825 36010 ft 475 kts 42°
2026-05-06 17:12 38.08085 -10.22897 36008 ft 475 kts 42°
2026-05-06 17:13 38.12769 -10.16952 36010 ft 476 kts 42°
2026-05-06 17:13 38.17449 -10.10994 36002 ft 477 kts 42°
2026-05-06 17:14 38.22124 -10.05016 36009 ft 477 kts 42°
2026-05-06 17:14 38.26808 -9.99019 36010 ft 477 kts 42°
2026-05-06 17:15 38.31469 -9.93049 36000 ft 478 kts 42°
2026-05-06 17:15 38.36154 -9.87040 35999 ft 478 kts 42°
2026-05-06 17:16 38.40842 -9.81021 35995 ft 478 kts 43°
2026-05-06 17:16 38.45532 -9.74974 35990 ft 479 kts 43°
2026-05-06 17:17 38.50221 -9.68904 36008 ft 480 kts 43°
2026-05-06 17:17 38.54914 -9.62837 35991 ft 480 kts 43°
2026-05-06 17:18 38.59606 -9.56755 35982 ft 480 kts 43°
2026-05-06 17:18 38.64270 -9.50697 35978 ft 481 kts 43°
2026-05-06 17:19 38.68961 -9.44592 35967 ft 481 kts 43°
2026-05-06 17:19 38.73650 -9.38474 35960 ft 481 kts 43°
2026-05-06 17:20 38.78343 -9.32337 35984 ft 482 kts 43°
2026-05-06 17:20 38.83038 -9.26190 35979 ft 482 kts 43°
2026-05-06 17:21 38.87726 -9.20037 35953 ft 482 kts 43°
2026-05-06 17:21 38.92410 -9.13871 35952 ft 482 kts 43°
2026-05-06 17:22 38.97061 -9.07737 35943 ft 482 kts 44°
2026-05-06 17:22 39.01743 -9.01552 35961 ft 483 kts 43°
2026-05-06 17:23 39.06438 -8.95360 35952 ft 483 kts 44°
2026-05-06 17:23 39.11122 -8.89157 35947 ft 483 kts 44°
2026-05-06 17:24 39.15803 -8.82932 35949 ft 484 kts 44°
2026-05-06 17:24 39.20488 -8.76692 35937 ft 484 kts 44°
2026-05-06 17:25 39.25167 -8.70449 35933 ft 484 kts 44°
2026-05-06 17:25 39.29059 -8.65253 35947 ft 484 kts 44°
2026-05-06 17:26 39.33734 -8.58994 35928 ft 484 kts 44°
2026-05-06 17:26 39.38406 -8.52717 35928 ft 484 kts 44°
2026-05-06 17:27 39.43054 -8.46470 35920 ft 484 kts 44°
2026-05-06 17:27 39.47719 -8.40188 35925 ft 484 kts 44°
2026-05-06 17:28 39.52388 -8.33890 35929 ft 484 kts 44°
2026-05-06 17:28 39.57054 -8.27587 35924 ft 484 kts 44°
2026-05-06 17:29 39.61708 -8.21278 35927 ft 484 kts 44°
2026-05-06 17:29 39.66357 -8.14955 35914 ft 484 kts 44°
2026-05-06 17:30 39.71006 -8.08620 35913 ft 484 kts 44°
2026-05-06 17:30 39.75652 -8.02277 35920 ft 484 kts 44°
2026-05-06 17:31 39.80293 -7.95933 35915 ft 484 kts 44°
2026-05-06 17:31 39.84936 -7.89580 35911 ft 484 kts 44°
2026-05-06 17:32 39.89580 -7.83223 35905 ft 484 kts 44°
2026-05-06 17:32 39.94212 -7.76849 35902 ft 484 kts 44°
2026-05-06 17:33 39.98837 -7.70460 35902 ft 484 kts 45°
2026-05-06 17:33 40.03466 -7.64070 35917 ft 484 kts 45°
2026-05-06 17:34 40.08094 -7.57671 35901 ft 484 kts 45°
2026-05-06 17:34 40.12709 -7.51272 35903 ft 484 kts 45°
2026-05-06 17:35 40.17288 -7.44906 35905 ft 483 kts 45°
2026-05-06 17:35 40.21890 -7.38496 35895 ft 483 kts 45°
2026-05-06 17:36 40.28782 -7.28863 35906 ft 483 kts 45°
2026-05-06 17:36 40.33374 -7.22434 35901 ft 482 kts 45°
2026-05-06 17:37 40.37953 -7.16012 35902 ft 482 kts 45°
2026-05-06 17:37 40.42520 -7.09589 35901 ft 481 kts 45°
2026-05-06 17:38 40.47086 -7.03144 35900 ft 481 kts 45°
2026-05-06 17:38 40.51614 -6.96753 35898 ft 480 kts 45°
2026-05-06 17:39 40.56168 -6.90319 35897 ft 480 kts 45°
2026-05-06 17:39 40.60714 -6.83867 35890 ft 480 kts 45°
2026-05-06 17:40 40.65248 -6.77415 35894 ft 480 kts 45°
2026-05-06 17:40 40.69776 -6.70959 35895 ft 479 kts 45°
2026-05-06 17:41 40.74305 -6.64499 35904 ft 479 kts 45°
2026-05-06 17:41 40.78822 -6.58037 35904 ft 479 kts 45°
2026-05-06 17:42 40.83328 -6.51572 35906 ft 478 kts 45°
2026-05-06 17:42 40.87800 -6.45144 35904 ft 478 kts 45°
2026-05-06 17:43 40.92300 -6.38672 35912 ft 478 kts 46°
2026-05-06 17:43 40.96786 -6.32188 35922 ft 477 kts 46°
2026-05-06 17:44 41.01489 -6.25999 35918 ft 475 kts 40°
2026-05-06 17:44 41.06410 -6.20164 35919 ft 475 kts 40°
2026-05-06 17:45 41.11317 -6.14310 35918 ft 475 kts 40°
2026-05-06 17:45 41.16220 -6.08430 35920 ft 474 kts 40°
2026-05-06 17:46 41.21081 -6.02587 35927 ft 474 kts 40°
2026-05-06 17:46 41.25975 -5.96714 35926 ft 473 kts 40°
2026-05-06 17:47 41.30856 -5.90833 35932 ft 473 kts 40°
2026-05-06 17:47 41.33167 -5.87722 35934 ft 474 kts 51°
2026-05-06 17:47 41.34872 -5.83973 35936 ft 475 kts 67°
2026-05-06 17:48 41.37265 -5.75767 35915 ft 475 kts 69°
2026-05-06 17:48 41.39598 -5.67529 35913 ft 476 kts 69°
2026-05-06 17:49 41.41935 -5.59281 35917 ft 476 kts 69°
2026-05-06 17:49 41.44276 -5.51031 35928 ft 476 kts 69°
2026-05-06 17:50 41.46615 -5.42770 35934 ft 476 kts 69°
2026-05-06 17:50 41.48954 -5.34514 35938 ft 476 kts 69°
2026-05-06 17:51 41.51280 -5.26250 35945 ft 476 kts 69°
2026-05-06 17:51 41.53599 -5.17982 35947 ft 476 kts 69°
2026-05-06 17:52 41.55908 -5.09701 35937 ft 476 kts 69°
2026-05-06 17:52 41.58210 -5.01414 35943 ft 476 kts 69°
2026-05-06 17:53 41.60515 -4.93126 35935 ft 476 kts 69°
2026-05-06 17:53 41.62814 -4.84833 35938 ft 476 kts 69°
2026-05-06 17:54 41.65101 -4.76531 35943 ft 476 kts 69°
2026-05-06 17:54 41.67382 -4.68223 35944 ft 476 kts 69°
2026-05-06 17:55 41.69662 -4.59910 35973 ft 476 kts 69°
2026-05-06 17:55 41.71931 -4.51589 35950 ft 476 kts 69°
2026-05-06 17:56 41.74177 -4.43319 35947 ft 476 kts 69°
2026-05-06 17:56 41.76436 -4.34979 35945 ft 476 kts 69°
2026-05-06 17:57 41.78692 -4.26646 35946 ft 476 kts 69°
2026-05-06 17:57 41.80946 -4.18297 35946 ft 476 kts 69°
2026-05-06 17:58 41.83196 -4.09936 35945 ft 476 kts 70°
2026-05-06 17:58 41.85434 -4.01576 35944 ft 476 kts 70°
2026-05-06 17:59 41.87656 -3.93213 35943 ft 476 kts 70°
2026-05-06 17:59 41.89874 -3.84840 35946 ft 476 kts 70°
2026-05-06 18:00 41.92100 -3.76453 35938 ft 476 kts 70°
2026-05-06 18:00 41.94306 -3.68117 35949 ft 477 kts 70°
2026-05-06 18:01 41.96514 -3.59715 35947 ft 477 kts 70°
2026-05-06 18:01 41.98713 -3.51309 35946 ft 477 kts 70°
2026-05-06 18:02 42.00910 -3.42893 35948 ft 477 kts 70°
2026-05-06 18:02 42.03104 -3.34468 35940 ft 477 kts 70°
2026-05-06 18:03 42.05294 -3.26029 35943 ft 478 kts 70°
2026-05-06 18:03 42.07479 -3.17571 35957 ft 478 kts 70°
2026-05-06 18:04 42.09652 -3.09113 35957 ft 478 kts 70°
2026-05-06 18:04 42.11823 -3.00634 35958 ft 479 kts 70°
2026-05-06 18:05 42.13986 -2.92188 35955 ft 479 kts 70°
2026-05-06 18:05 42.16154 -2.83695 35966 ft 480 kts 70°
2026-05-06 18:06 42.18318 -2.75187 35986 ft 479 kts 70°
2026-05-06 18:06 42.20471 -2.66678 35983 ft 479 kts 70°
2026-05-06 18:07 42.22616 -2.58160 35980 ft 480 kts 70°
2026-05-06 18:07 42.24757 -2.49629 35977 ft 480 kts 70°
2026-05-06 18:08 42.26533 -2.42538 35984 ft 480 kts 71°
2026-05-06 18:08 42.28663 -2.33986 35981 ft 480 kts 71°
2026-05-06 18:09 42.30783 -2.25436 35978 ft 480 kts 71°
2026-05-06 18:09 42.32905 -2.16871 35973 ft 481 kts 71°
2026-05-06 18:10 42.35024 -2.08294 35973 ft 481 kts 71°
2026-05-06 18:10 42.37138 -1.99706 35975 ft 481 kts 71°
2026-05-06 18:11 42.39237 -1.91102 35995 ft 482 kts 71°
2026-05-06 18:11 42.41340 -1.82480 35984 ft 482 kts 71°
2026-05-06 18:12 42.43437 -1.73864 35982 ft 482 kts 71°
2026-05-06 18:12 42.45528 -1.65237 35984 ft 482 kts 71°
2026-05-06 18:13 42.47609 -1.56599 35982 ft 482 kts 71°
2026-05-06 18:13 42.49673 -1.48016 35971 ft 482 kts 71°
2026-05-06 18:14 42.51749 -1.39359 35971 ft 483 kts 71°
2026-05-06 18:14 42.53813 -1.30681 35972 ft 484 kts 71°
2026-05-06 18:15 42.55880 -1.21981 35963 ft 484 kts 71°
2026-05-06 18:15 42.57948 -1.13285 35968 ft 485 kts 71°
2026-05-06 18:16 42.60011 -1.04564 35956 ft 485 kts 71°
2026-05-06 18:16 42.62062 -0.95821 35980 ft 486 kts 72°
2026-05-06 18:17 42.64098 -0.87064 35976 ft 486 kts 72°
2026-05-06 18:17 42.66138 -0.78304 35975 ft 486 kts 71°
2026-05-06 18:18 42.68180 -0.69542 35966 ft 486 kts 72°
2026-05-06 18:18 42.70211 -0.60768 35970 ft 487 kts 72°
2026-05-06 18:19 42.72237 -0.51972 35966 ft 487 kts 72°
2026-05-06 18:19 42.74254 -0.43168 35972 ft 488 kts 72°
2026-05-06 18:20 42.76255 -0.34409 35975 ft 488 kts 72°
2026-05-06 18:20 42.78259 -0.25585 35993 ft 488 kts 72°
2026-05-06 18:21 42.81108 -0.17257 35989 ft 484 kts 54°
2026-05-06 18:21 42.85271 -0.10095 35984 ft 482 kts 48°
2026-05-06 18:22 42.89524 -0.03019 36003 ft 482 kts 49°
2026-05-06 18:22 42.93769 0.04099 35995 ft 483 kts 49°
2026-05-06 18:23 42.98019 0.11221 35989 ft 484 kts 49°
2026-05-06 18:23 43.02250 0.18315 36011 ft 485 kts 49°
2026-05-06 18:24 43.06505 0.25450 36024 ft 484 kts 49°
2026-05-06 18:24 43.10745 0.32590 36025 ft 483 kts 49°
2026-05-06 18:25 43.14971 0.39735 36020 ft 483 kts 49°
2026-05-06 18:25 43.19198 0.46896 36004 ft 483 kts 49°
2026-05-06 18:26 43.23429 0.54069 36020 ft 484 kts 49°
2026-05-06 18:26 43.27650 0.61252 36018 ft 483 kts 49°
2026-05-06 18:27 43.31856 0.68437 36017 ft 482 kts 49°
2026-05-06 18:27 43.36059 0.75620 36010 ft 482 kts 49°
2026-05-06 18:28 43.40260 0.82803 35997 ft 482 kts 49°
2026-05-06 18:28 43.44456 0.90011 36012 ft 483 kts 49°
2026-05-06 18:29 43.48642 0.97234 36009 ft 482 kts 49°
2026-05-06 18:29 43.52821 1.04459 36006 ft 481 kts 49°
2026-05-06 18:30 43.56974 1.11644 36003 ft 481 kts 49°
2026-05-06 18:30 43.61139 1.18867 35979 ft 481 kts 49°
2026-05-06 18:31 43.65310 1.26119 35989 ft 482 kts 50°
2026-05-06 18:31 43.69458 1.33395 35988 ft 481 kts 51°
2026-05-06 18:32 43.73466 1.40828 35988 ft 482 kts 52°
2026-05-06 18:32 43.77391 1.48330 35987 ft 481 kts 52°
2026-05-06 18:33 43.81334 1.55817 35979 ft 481 kts 52°
2026-05-06 18:33 43.85283 1.63250 35987 ft 482 kts 52°
2026-05-06 18:34 43.89256 1.70742 35987 ft 482 kts 52°
2026-05-06 18:34 43.93216 1.78238 35989 ft 482 kts 52°
2026-05-06 18:35 43.97151 1.85764 35988 ft 482 kts 53°
2026-05-06 18:35 44.00970 1.93411 35972 ft 482 kts 54°
2026-05-06 18:36 44.04766 2.01163 35989 ft 482 kts 54°
2026-05-06 18:36 44.08538 2.08796 35985 ft 482 kts 54°
2026-05-06 18:37 44.11726 2.15221 35990 ft 482 kts 54°
2026-05-06 18:37 44.16149 2.24151 35987 ft 481 kts 54°
2026-05-06 18:38 44.19936 2.31850 35982 ft 482 kts 54°
2026-05-06 18:38 44.23720 2.39575 35986 ft 483 kts 54°
2026-05-06 18:39 44.27510 2.47303 35983 ft 483 kts 54°
2026-05-06 18:40 44.33186 2.58910 35976 ft 483 kts 54°
2026-05-06 18:40 44.36966 2.66677 35976 ft 483 kts 55°
2026-05-06 18:41 44.40743 2.74457 35978 ft 483 kts 55°
2026-05-06 18:41 44.44515 2.82247 35976 ft 483 kts 55°
2026-05-06 18:42 44.48283 2.90044 35976 ft 483 kts 55°
2026-05-06 18:42 44.52020 2.97808 35971 ft 483 kts 55°
2026-05-06 18:42 44.53894 3.01719 35709 ft 482 kts 55°
2026-05-06 18:43 44.55762 3.05617 35037 ft 482 kts 55°
2026-05-06 18:43 44.57634 3.09524 34336 ft 483 kts 55°
2026-05-06 18:43 44.59508 3.13445 33643 ft 483 kts 55°
2026-05-06 18:43 44.61359 3.17377 32900 ft 482 kts 57°
2026-05-06 18:44 44.63110 3.21390 32130 ft 482 kts 59°
2026-05-06 18:44 44.64770 3.25487 31358 ft 482 kts 60°
2026-05-06 18:44 44.66370 3.29619 30607 ft 482 kts 61°
2026-05-06 18:44 44.67950 3.33764 30142 ft 480 kts 61°
2026-05-06 18:45 44.69536 3.37898 29923 ft 481 kts 60°
2026-05-06 18:45 44.72783 3.46140 29955 ft 482 kts 60°
2026-05-06 18:46 44.76077 3.54350 29950 ft 482 kts 60°
2026-05-06 18:46 44.79365 3.62577 29951 ft 482 kts 60°
2026-05-06 18:47 44.82629 3.70819 29950 ft 482 kts 60°
2026-05-06 18:47 44.85861 3.79029 29949 ft 482 kts 60°
2026-05-06 18:48 44.89120 3.87335 29949 ft 486 kts 60°
2026-05-06 18:48 44.92403 3.95700 29949 ft 488 kts 60°
2026-05-06 18:49 44.95672 4.04062 29939 ft 484 kts 60°
2026-05-06 18:49 44.98917 4.12393 29940 ft 483 kts 60°
2026-05-06 18:50 45.02149 4.20727 29939 ft 483 kts 61°
2026-05-06 18:50 45.04852 4.27697 29940 ft 489 kts 61°
2026-05-06 18:51 45.08670 4.37527 29941 ft 490 kts 61°
2026-05-06 18:51 45.11933 4.45996 29933 ft 488 kts 61°
2026-05-06 18:52 45.14643 4.53059 29940 ft 487 kts 61°
2026-05-06 18:52 45.17864 4.61493 29940 ft 486 kts 61°
2026-05-06 18:53 45.21099 4.69967 29685 ft 489 kts 61°
2026-05-06 18:53 45.22716 4.74209 28863 ft 488 kts 61°
2026-05-06 18:53 45.24332 4.78460 28582 ft 490 kts 61°
2026-05-06 18:53 45.25952 4.82723 28294 ft 491 kts 61°
2026-05-06 18:54 45.27570 4.86988 28021 ft 491 kts 61°
2026-05-06 18:54 45.29186 4.91255 27770 ft 487 kts 61°
2026-05-06 18:54 45.30778 4.95471 27500 ft 482 kts 61°
2026-05-06 18:54 45.32358 4.99658 27232 ft 479 kts 61°
2026-05-06 18:55 45.33925 5.03813 26944 ft 476 kts 61°
2026-05-06 18:55 45.35481 5.07948 26254 ft 473 kts 61°
2026-05-06 18:55 45.37028 5.12064 25522 ft 468 kts 61°
2026-05-06 18:55 45.38551 5.16126 24898 ft 462 kts 61°
2026-05-06 18:56 45.40051 5.20132 24311 ft 456 kts 61°
2026-05-06 18:56 45.41529 5.24086 23749 ft 450 kts 61°
2026-05-06 18:56 45.42989 5.27994 23119 ft 444 kts 61°
2026-05-06 18:56 45.44408 5.31805 22458 ft 439 kts 61°
2026-05-06 18:57 45.45831 5.35632 21805 ft 435 kts 62°
2026-05-06 18:57 45.47348 5.39324 21216 ft 429 kts 55°
2026-05-06 18:57 45.49188 5.42630 20597 ft 424 kts 46°
2026-05-06 18:57 45.51325 5.45495 19966 ft 420 kts 37°
2026-05-06 18:58 45.53713 5.47886 19317 ft 416 kts 29°
2026-05-06 18:58 45.56214 5.49957 18687 ft 414 kts 28°
2026-05-06 18:58 45.58703 5.52022 18138 ft 413 kts 28°
2026-05-06 18:58 45.61185 5.54091 17912 ft 413 kts 28°
2026-05-06 18:59 45.63665 5.56163 17941 ft 414 kts 28°
2026-05-06 18:59 45.66153 5.58238 17939 ft 413 kts 28°
2026-05-06 18:59 45.68640 5.60301 17939 ft 413 kts 28°
2026-05-06 18:59 45.71141 5.62317 17696 ft 412 kts 27°
2026-05-06 19:00 45.73649 5.64292 17431 ft 410 kts 27°
2026-05-06 19:00 45.76152 5.66242 17158 ft 409 kts 27°
2026-05-06 19:00 45.78644 5.68185 16887 ft 407 kts 27°
2026-05-06 19:00 45.81125 5.70128 16632 ft 406 kts 27°
2026-05-06 19:01 45.83565 5.72046 16387 ft 403 kts 27°
2026-05-06 19:01 45.86019 5.74053 15840 ft 399 kts 32°
2026-05-06 19:01 45.88206 5.76491 15308 ft 397 kts 42°
2026-05-06 19:01 45.90069 5.79399 14763 ft 395 kts 51°
2026-05-06 19:02 45.91688 5.82571 14211 ft 393 kts 53°
2026-05-06 19:02 45.93268 5.85697 13682 ft 390 kts 53°
2026-05-06 19:02 45.94863 5.88844 13099 ft 387 kts 52°
2026-05-06 19:02 45.96642 5.91718 12512 ft 383 kts 44°
2026-05-06 19:03 45.98521 5.94413 11937 ft 380 kts 44°
2026-05-06 19:03 46.00382 5.97086 11353 ft 378 kts 44°
2026-05-06 19:03 46.02237 5.99752 10802 ft 375 kts 44°
2026-05-06 19:03 46.04072 6.02393 10262 ft 372 kts 44°
2026-05-06 19:04 46.05887 6.05011 9799 ft 365 kts 44°
2026-05-06 19:04 46.07644 6.07549 9671 ft 350 kts 44°
2026-05-06 19:04 46.09326 6.09978 9532 ft 336 kts 44°
2026-05-06 19:04 46.10938 6.12324 9399 ft 323 kts 45°
2026-05-06 19:05 46.12482 6.14604 9261 ft 312 kts 45°
2026-05-06 19:05 46.13965 6.16811 9130 ft 301 kts 45°
2026-05-06 19:05 46.15404 6.18959 8871 ft 296 kts 45°
2026-05-06 19:05 46.16828 6.21082 8528 ft 293 kts 45°
2026-05-06 19:06 46.18245 6.23189 8153 ft 292 kts 45°
2026-05-06 19:06 46.19661 6.25292 7780 ft 290 kts 45°
2026-05-06 19:06 46.21070 6.27372 7405 ft 289 kts 45°
2026-05-06 19:06 46.22482 6.29437 7047 ft 288 kts 45°
2026-05-06 19:07 46.23881 6.31486 6997 ft 287 kts 45°
2026-05-06 19:07 46.25289 6.33555 7007 ft 289 kts 45°
2026-05-06 19:07 46.26696 6.35628 7008 ft 289 kts 45°
2026-05-06 19:07 46.28105 6.37701 7008 ft 289 kts 45°
2026-05-06 19:08 46.29516 6.39775 7010 ft 289 kts 45°
2026-05-06 19:08 46.30927 6.41849 7003 ft 289 kts 45°
2026-05-06 19:08 46.32338 6.43929 7008 ft 290 kts 46°
2026-05-06 19:08 46.33748 6.46019 7008 ft 290 kts 46°
2026-05-06 19:09 46.35137 6.48076 7004 ft 278 kts 45°
2026-05-06 19:09 46.36452 6.50019 7005 ft 262 kts 46°
2026-05-06 19:09 46.37719 6.51918 7005 ft 260 kts 46°
2026-05-06 19:09 46.39103 6.53491 6992 ft 256 kts 22°
2026-05-06 19:10 46.40803 6.54025 6673 ft 249 kts 352°
2026-05-06 19:10 46.42402 6.53286 6318 ft 239 kts 324°
2026-05-06 19:10 46.43754 6.51893 5936 ft 238 kts 317°
2026-05-06 19:10 46.44876 6.50167 5582 ft 232 kts 299°
2026-05-06 19:11 46.45536 6.48070 5226 ft 227 kts 281°
2026-05-06 19:11 46.45703 6.45814 4882 ft 224 kts 264°
2026-05-06 19:11 46.45383 6.43625 4556 ft 221 kts 247°
2026-05-06 19:11 46.44629 6.41718 4308 ft 216 kts 230°
2026-05-06 19:12 46.43599 6.40143 4306 ft 216 kts 226°
2026-05-06 19:12 46.42554 6.38587 4307 ft 215 kts 226°
2026-05-06 19:12 46.41516 6.37042 4309 ft 213 kts 226°
2026-05-06 19:12 46.40479 6.35503 4308 ft 212 kts 226°
2026-05-06 19:13 46.39450 6.33977 4311 ft 213 kts 226°
2026-05-06 19:13 46.38414 6.32442 4298 ft 217 kts 225°
2026-05-06 19:13 46.37347 6.30863 4051 ft 215 kts 225°
2026-05-06 19:13 46.36337 6.29368 4003 ft 204 kts 225°
2026-05-06 19:14 46.35350 6.27909 4002 ft 198 kts 225°
2026-05-06 19:14 46.34406 6.26514 3958 ft 196 kts 225°
2026-05-06 19:14 46.33459 6.25115 3770 ft 194 kts 225°
2026-05-06 19:14 46.32513 6.23719 3526 ft 194 kts 225°
2026-05-06 19:15 46.31586 6.22351 3273 ft 186 kts 225°
2026-05-06 19:15 46.30714 6.21065 3034 ft 172 kts 225°
2026-05-06 19:15 46.29916 6.19888 2812 ft 155 kts 225°
2026-05-06 19:15 46.29193 6.18822 2581 ft 144 kts 225°
2026-05-06 19:16 46.28499 6.17800 2382 ft 142 kts 226°
2026-05-06 19:16 46.27807 6.16782 2189 ft 141 kts 226°
2026-05-06 19:16 46.27128 6.15782 1996 ft 140 kts 226°
2026-05-06 19:16 46.26449 6.14767 1820 ft 141 kts 227°
2026-05-06 19:17 46.25774 6.13739 1652 ft 141 kts 226°
2026-05-06 19:17 46.25073 6.12754 1478 ft 141 kts 224°
2026-05-06 19:17 46.24417 6.11774 1387 ft 116 kts 227°
2026-05-06 19:17 46.24056 6.11276 1396 ft 35 kts 225°
2026-05-06 19:18 46.23947 6.11106 1399 ft 14 kts 218°
2026-05-06 19:18 46.23847 6.11070 1387 ft 16 kts 175°
2026-05-06 19:18 46.23785 6.11083 1388 ft 1 kts 171°
2026-05-06 19:18 46.23777 6.11085 1389 ft 1 kts 171°
2026-05-06 19:19 46.23774 6.11086 1390 ft 0 kts 171°
2026-05-06 19:19 46.23769 6.11087 1389 ft 4 kts 171°
2026-05-06 19:20 46.23743 6.11092 1390 ft 3 kts 175°
2026-05-06 19:20 46.23726 6.11085 1390 ft 2 kts 207°
2026-05-06 19:20 46.23716 6.11078 1390 ft 1 kts 206°
2026-05-06 19:20 46.23713 6.11076 1388 ft 0 kts 206°
2026-05-06 19:21 46.23691 6.11060 1386 ft 7 kts 209°
2026-05-06 19:21 46.23649 6.10998 1387 ft 11 kts 226°
2026-05-06 19:21 46.23587 6.10905 1388 ft 15 kts 226°
2026-05-06 19:21 46.23507 6.10787 1387 ft 12 kts 224°
2026-05-06 19:22 46.23460 6.10720 1389 ft 11 kts 226°
2026-05-06 19:22 46.23393 6.10628 1387 ft 15 kts 219°
2026-05-06 19:22 46.23318 6.10527 1389 ft 10 kts 220°
2026-05-06 19:22 46.23255 6.10565 1388 ft 12 kts 137°
2026-05-06 19:23 46.23190 6.10649 1389 ft 8 kts 142°
2026-05-06 19:23 46.23142 6.10614 1388 ft 10 kts 216°
2026-05-06 19:23 46.23104 6.10569 1387 ft 2 kts 224°
2026-05-06 19:23 46.23084 6.10558 1389 ft 5 kts 175°
2026-05-06 19:24 46.23066 6.10597 1387 ft 6 kts 130°
2026-05-06 19:24 46.23063 6.10602 1385 ft 1 kts 131°
2026-05-06 19:24 46.23055 6.10612 1390 ft 0 kts 137°
2026-05-06 19:24 46.23055 6.10613 1390 ft 0 kts 137°